Location: Bh?mavarapp?du
(16.7041°N, 80.6518°E)
Time: 00:23:19
(UTC+00:00)

CZ-2C R/B - Pass Details

Date: 21 April 2021
Orbit: 668 x 784 km, 98.2° (Epoch: 07 May)

Event Time Altitude Azimuth Distance (km) Brightness Sun altitude
Rises 22:47:41 0° 355° (N) 3,136 5.9 -21.4°
Reaches altitude 10° 22:50:09 10° 345° (NNW) 2,233 5.0 -20.9°
Enters shadow 22:54:00 30° 294° (WNW) 1,318 3.3 -20.0°
